Tracking 18852 objects as of 24-Nov-2017
HD Live streaming from Space Station
objects crossing your sky now

FENGYUN 1C DEB

Track FENGYUN 1C DEB now!
10-day predictions


NORAD ID: 37455
Int'l Code: 1999-025EHZ
Perigee: 532.6 km
Apogee: 829.1 km
Inclination: 99.4 °
Period: 98.2 minutes
Semi major axis: 7051 km
RCS: 0.0151 m2 (small)
Launch date: May 10, 1999
Source: People's Republic of China (PRC)
Launch site: Taiyaun Space Center, China (TSC)

Note: This is SATELLITE DEBRIS
aabbcc
Your satellite tracking list
Your tracking list is empty




NASA's NSSDC Master Catalog

Two Line Element Set (TLE):
1 37455U 99025EHZ 17326.60451122 +.00003173 +00000-0 +42620-3 0  9990
2 37455 099.4234 112.0316 0210252 173.3708 187.0353 14.66048118192493
Source of the keplerian elements: AFSPC